This is the latest recevied weather packets stored in our database for station/object F1AGU-13. If no packets are shown the sender has not sent any weather packets the latest 10 day(s).
| Time | Temp. | Humidity | Pressure | Rain* | Wind** | Luminosity | Snow |
|---|---|---|---|---|---|---|---|
| 1787499016 | 24.44° C | 52% | 1021.6 hPa | 0 mm | - | - | - |
| 1787498416 | 24.44° C | 53% | 1021.6 hPa | 0 mm | - | - | - |
| 1787497816 | 24.44° C | 51% | 1021.7 hPa | 0 mm | - | - | - |
| 1787497216 | 24.44° C | 50% | 1021.9 hPa | 0 mm | - | - | - |
| 1787496617 | 24.44° C | 54% | 1021.9 hPa | 0 mm | - | - | - |
| 1787496064 | 25° C | 51% | 1021.9 hPa | 0 mm | - | - | - |
| 1787495416 | 25° C | 51% | 1022 hPa | 0 mm | - | - | - |
| 1787494816 | 24.44° C | 51% | 1022 hPa | 0 mm | - | - | - |
| 1787494216 | 24.44° C | 53% | 1022.2 hPa | 0 mm | - | - | - |
| 1787493616 | 24.44° C | 51% | 1022.3 hPa | 0 mm | - | - | - |
| 1787493016 | 23.89° C | 52% | 1022.1 hPa | 0 mm | - | - | - |
| 1787492416 | 24.44° C | 56% | 1022.1 hPa | 0 mm | - | - | - |
| 1787491816 | 23.89° C | 52% | 1022.3 hPa | 0 mm | - | - | - |
| 1787491230 | 23.89° C | 53% | 1022.3 hPa | 0 mm | - | - | - |
| 1787490616 | 23.33° C | 55% | 1022.3 hPa | 0 mm | - | - | - |
| 1787490016 | 23.33° C | 53% | 1022.4 hPa | 0 mm | - | - | - |
| 1787489416 | 22.78° C | 52% | 1022.4 hPa | 0 mm | - | - | - |
| 1787488816 | 22.78° C | 54% | 1022.5 hPa | 0 mm | - | - | - |
| 1787488216 | 22.22° C | 55% | 1022.3 hPa | 0 mm | - | - | - |
| 1787487616 | 22.22° C | 59% | 1022.3 hPa | 0 mm | - | - | - |
| 1787487016 | 21.67° C | 58% | 1022.4 hPa | 0 mm | - | - | - |
| 1787486416 | 21.67° C | 57% | 1022.4 hPa | 0 mm | - | - | - |
| 1787485816 | 21.11° C | 55% | 1022.2 hPa | 0 mm | - | - | - |
| 1787485215 | 21.11° C | 54% | 1022.1 hPa | 0 mm | - | - | - |
| 1787484615 | 21.11° C | 54% | 1022.4 hPa | 0 mm | - | - | - |
* Rain latest hour (hover to see other rain measurements)
** Current wind speed in m/s (hover to see current wind gust speed)